CZ-6A DEB, 54307

Orbit data source: Space-Track

CZ-6A DEB, 54307 is space debris in SSO originally from a launch on Fri, 11 Nov 2022 UTC launched from the Taiyaun Space Center, China (TSC). Debris objects in space refer to the collection of defunct objects orbiting the Earth. Examples of debris include non-operational satellites, rocket bodies, and fragments generated from explosions, collisions, or faulty payload assembly.

Loading next visibility...
Identifier
54307, 2022-151BA
Orbit
SSO
Country
Flag of CNCN / PRC
Related business
Manufacturer
SAST
Mission
Spacecraft
Bus & Motor
Unknown
Mass
Unknown
Launch date (UTC)
2022-11-11 (4 years ago)
Launch vehicle
Unknown
Launch site
Taiyaun Space Center, China (TSC)
Object type
Payload
Rocket body
Debris
Shape & HBR
Unknown shape, 0.1 m
Radar Cross Section
Medium (>0.1 m² and <1 m²)

Expand to show TLE details & history
Last TLE update: 1 day ago

TLE from 1 day ago
0 CZ-6A DEB
1 54307U 22151BA  26235.19450739  .00062672  00000-0  34689-2 0  9991
2 54307  98.5540 313.1437 0026960  15.8527 344.3539 15.13276151129684
Epoch: 2026-08-23T04:40Z
TLE epoch observation values (Epoch: 2026-08-23T04:40:05.438Z)
Latitude
-0°
Longitude
-88.37302°
Altitude
511.338 km
Speed
7.618 km/s
True Right ascension
20h 52m 34s
True Declination
0° 00' 00"
Sunlit
Object was in full shadow at epoch
Visualization orbit readout
Latitude
Unknown
Longitude
Unknown
Altitude
Unknown
Speed
Unknown
Apparent Right ascension
Unknown
Apparent Declination
Unknown
Sunlit
N/A
Visualization observer readout
Local Sidereal Time
02:50:41
Azimuth
Unknown
Elevation
Unknown
Doppler factor
Unknown
Orbital elements
Apogee altitude
541.851 km
Perigee altitude
504.638 km
Semi-major axis
6,901.381 km
Eccentricity
0.0027
Inclination
98.554°
RAAN
313.1437°
Arg. of periapsis
15.8527°
True anomaly
344.27031°
Mean anomaly
344.3539°
Eccentric anomaly
344.31213°
Mean motion
3.78564 °/min
Orbital period
95.1 mins
BSTAR
0.0034689
Loading maneuver chart data...
Computing Atmospheric mass density...
Loading historical data...
Loading historical data...
Loading historical data...
Loading historical data...
Loading historical data...
Loading historical data...
Loading historical data...

Documentation

Showing up to 5 results
|